IRIDIUM 82 [+]

Last updated on Tue May 16 2017 00:17:33 GMT+0000 (Coordinated Universal Time)

1 25467U 98051A 17135.14672635 .00000596 00000-0 42480-4 0 9990 2 25467 86.4038 35.5829 0184714 148.1377 213.1186 14.89180187981932

Satellite not in orbit

IRIDIUM 82 [+]